[[{"header":{"parameterUnit":"m.s-1","parameterCategory":1,"la1":30.2991,"la2":30.254,"lo1":-89.0895,"lo2":-89.0444,"dy":0.0017,"dx":0.0017,"nx":28,"ny":28,"refTime":"2024-06-29T21:00:00:Z","depth":0,"parameterNumber":2,"parameterNumberName":"U-component_of_WINDS"},"data":[0,0,0,0,0,0,0,0,0,0,0,0,0,0,0,0,0,0,0,0,0,0,0,0,0,0,0,0,0,0,0,0,0,0,0,0,0,0,0,0,0,0,0,0,0,0,0,0,0,0,0,0,0,0,0,0,0,0,3.8759,3.8761,0,3.892,3.8922,3.8924,3.8922,3.892,3.8917,3.8915,3.908,3.9086,3.9092,0,0,0,0,0,0,0,0,0,0,0,0,0,3.8447,3.8452,3.8759,3.8761,3.8763,3.892,3.8922,3.8924,3.8922,3.8919,3.8917,3.8914,3.9077,3.9085,3.9093,0,0,0,0,0,0,0,0,0,0,0,0,0,3.8592,3.8454,3.8759,3.8781,3.8784,3.892,3.8922,3.8925,3.8923,3.8919,3.8916,3.8913,3.9075,3.9084,3.9094,3.9217,0,0,3.9123,3.9127,0,0,0,0,0,0,0,0,3.8584,3.8604,3.8775,3.8779,3.8784,3.8898,3.8872,3.9023,3.8923,3.887,3.8915,3.8912,3.9022,3.9035,3.9073,3.9225,3.9232,3.9124,3.9129,3.9134,3.9136,0,0,0,0,0,0,0,3.8574,3.8597,3.8823,3.8778,3.8783,3.8782,3.8799,3.8901,3.8962,3.8874,3.8875,3.8894,3.9023,3.9063,3.9076,3.9234,3.9123,3.9132,3.9138,3.9142,3.9494,3.9497,0,0,0,0,0,0,3.856,3.8589,3.8818,3.8828,3.8674,3.879,3.8809,3.8864,3.8961,3.8972,3.8896,3.8893,3.9049,3.9065,3.9082,3.9231,3.9134,3.9142,3.9148,3.949,3.9494,3.9498,0,0,0,0,0,0,3.8553,3.858,3.8811,3.8708,3.8738,3.8799,3.8861,3.8869,3.8909,3.8977,3.8988,3.8926,3.9047,3.9069,3.9183,3.9237,3.9147,3.9155,3.9486,3.9491,3.9496,3.9531,0,0,0,0,0,0,3.8544,3.8578,3.8626,3.8709,3.8743,3.891,3.8864,3.8875,3.8926,3.8923,3.9008,3.9019,3.9046,3.9169,3.9193,3.9248,3.9163,3.9481,3.9488,3.9495,3.9525,3.9537,3.9547,0,0,0,0,0,3.8533,3.8629,3.8628,3.8656,3.8805,3.8913,3.8932,3.8961,3.893,3.8978,3.9022,3.9017,3.9228,3.9181,3.9207,3.9267,3.9478,3.9486,3.9494,3.952,3.9534,3.9546,0,0,0,0,0,0,3.855,3.8641,3.864,3.8767,3.8832,3.8912,3.8974,3.8976,3.9051,3.9045,3.9077,3.9097,3.921,3.925,3.9197,3.939,3.9349,3.9363,3.9359,3.9373,3.9384,3.9371,3.9171,0,0,0,0,0,3.8569,3.865,3.8725,3.8829,3.8862,3.8912,3.8961,3.8977,3.9046,3.9074,3.9126,3.9192,3.9273,3.9326,3.9405,3.9532,3.9549,3.9585,3.9596,3.9605,3.9615,3.9683,3.9699,3.9525,3.9525,3.9525,0,0,3.8608,3.8667,3.8717,3.8834,3.8886,3.8969,3.8936,3.9025,3.9085,3.9087,3.9198,3.9238,3.9315,3.9435,3.9491,3.9472,3.9668,3.9615,3.9621,3.9628,3.9693,3.9709,3.9724,3.953,3.9529,3.9529,0,0,3.872,3.8775,3.8866,3.892,3.9,3.9033,3.9055,3.9135,3.9162,3.9273,3.9276,3.9349,3.9488,3.9542,3.9587,3.972,3.9716,3.9745,3.98,3.9865,3.9879,3.9891,3.9936,3.9952,3.9756,3.9756,3.9756,0,3.8758,3.8883,3.8913,3.9002,3.9053,3.9059,3.9151,3.9201,3.9302,3.9337,3.9315,3.9489,3.9541,3.9672,3.9705,3.9742,3.9767,3.9734,3.9875,3.9887,3.9899,3.9942,3.9959,3.9758,3.9758,3.9758,3.9758,0,3.8925,3.9011,3.9075,3.9173,3.9231,3.9321,3.9364,3.9419,3.9431,3.9466,3.9578,3.9641,3.9731,3.9765,3.9777,3.9898,3.9883,3.9868,3.9826,3.9918,3.9958,3.9975,3.9762,3.9761,3.976,3.976,0,0,3.9051,3.9164,3.9187,3.923,3.9319,3.9386,3.9476,3.9564,3.961,3.968,3.9754,3.9872,3.9858,3.991,3.9928,3.9986,4.0084,3.9963,3.9966,3.9981,4.0218,4.0226,4.0245,4.0083,4.0087,4.0089,4.021,0,3.9171,3.933,3.936,3.9499,3.9577,3.9584,3.9662,3.9724,3.976,3.9831,3.987,3.9952,3.9928,3.9959,4.0017,4.0059,4.0131,4.0052,4.0151,4.0154,4.0129,4.0267,4.0277,4.0388,4.0227,4.0229,4.0231,0,3.9331,3.9405,3.9551,3.9628,3.9662,3.9731,3.9814,3.9883,3.9953,3.9974,4.0032,4.0044,4.0136,4.0092,4.0219,4.0164,4.0207,4.0234,4.0239,4.0247,4.0196,4.0276,4.0425,4.044,4.0257,4.0255,4.0253,0,3.9405,3.9541,3.9646,3.9683,3.9776,3.9824,3.9865,3.9932,3.9983,4.0055,4.0088,4.017,4.0214,4.0277,4.0311,4.0276,4.0434,4.0394,4.0452,4.0451,4.0483,4.048,4.0638,4.0516,4.0515,4.0515,4.0515,0,3.9534,3.9623,3.968,3.9744,3.9843,3.9876,3.9973,4.0013,4.0072,4.0143,4.0155,4.0221,4.0263,4.0335,4.0362,4.0461,4.0481,4.05,4.0505,4.0497,4.0494,4.0524,4.0516,4.052,4.0519,4.0518,4.0517,0,3.9632,3.9675,3.9788,3.9867,3.9888,3.9957,4.0024,4.0086,4.0121,4.0211,4.0234,4.0289,4.0374,4.0414,4.052,4.0538,4.065,4.0652,4.0625,4.0627,4.0682,4.0675,4.0862,4.0887,4.0751,4.0752,4.0753,0,3.971,3.9778,3.9864,3.9912,3.9954,4.0032,4.0084,4.0119,4.0172,4.0257,4.0308,4.0394,4.0464,4.0599,4.0648,4.0729,4.0731,4.0791,4.0743,4.0732,4.0728,4.0722,4.0728,4.0798,4.08,4.0801,4.0802,0,3.9843,3.986,3.9934,4.0016,4.0077,4.0143,4.0207,4.0246,4.0292,4.035,4.0438,4.0492,4.06,4.0684,4.0767,4.0808,4.0812,4.0817,4.0834,4.0825,4.0806,4.0814,4.0646,4.0812,4.0811,4.081,4.0809,4.0809,3.9931,3.9991,4.006,4.0142,4.0194,4.0254,4.0315,4.0358,4.0432,4.0521,4.0538,4.063,4.0698,4.081,4.0855,4.0926,4.0912,4.0938,4.0944,4.0949,4.0951,4.0797,4.0942,4.0942,4.0942,4.0942,4.0941,0,4.0062,4.0107,4.0182,4.0271,4.0335,4.0334,4.0405,4.0458,4.0539,4.0602,4.0671,4.077,4.0852,4.0907,4.0989,4.1036,4.104,4.1056,4.1051,4.106,4.096,4.0935,4.1052,4.1052,4.1052,4.1052,4.1052,4.1052,4.0137,4.0237,4.0263,4.0389,4.0433,4.0523,4.0564,4.0618,4.0668,4.0778,4.0846,4.0882,4.0942,4.1028,4.1103,4.1117,4.1145,4.1162,4.1175,4.108,4.1068,4.1057,4.1033,4.1168,4.1169,4.1269,4.127,4.1271]},{"header":{"parameterUnit":"m.s-1","parameterCategory":1,"la1":30.2991,"la2":30.254,"lo1":-89.0895,"lo2":-89.0444,"dy":0.0017,"dx":0.0017,"nx":28,"ny":28,"refTime":"2024-06-29T21:00:00:Z","depth":0,"parameterNumber":3,"parameterNumberName":"V-component_of_WINDS"},"data":[0,0,0,0,0,0,0,0,0,0,0,0,0,0,0,0,0,0,0,0,0,0,0,0,0,0,0,0,0,0,0,0,0,0,0,0,0,0,0,0,0,0,0,0,0,0,0,0,0,0,0,0,0,0,0,0,0,0,1.4496,1.4497,0,1.4607,1.4608,1.4609,1.4616,1.4614,1.4613,1.4612,1.4727,1.4731,1.4735,0,0,0,0,0,0,0,0,0,0,0,0,0,1.429,1.4294,1.4496,1.4497,1.4498,1.4606,1.4608,1.4609,1.4616,1.4614,1.4613,1.4611,1.4726,1.4731,1.4736,0,0,0,0,0,0,0,0,0,0,0,0,0,1.4388,1.4295,1.4495,1.4515,1.4517,1.4606,1.4608,1.461,1.4616,1.4614,1.4612,1.4611,1.4724,1.473,1.4736,1.4814,0,0,1.4756,1.4759,0,0,0,0,0,0,0,0,1.4383,1.4396,1.451,1.4514,1.4517,1.4595,1.4578,1.4678,1.4617,1.4579,1.4612,1.461,1.4685,1.4694,1.4719,1.4819,1.4824,1.4756,1.476,1.4763,1.4765,0,0,0,0,0,0,0,1.4376,1.4391,1.454,1.4512,1.4516,1.4518,1.453,1.4597,1.4641,1.4582,1.4583,1.4596,1.4686,1.4713,1.4722,1.4826,1.4756,1.4762,1.4766,1.4768,1.4994,1.4996,0,0,0,0,0,0,1.4365,1.4385,1.4536,1.4543,1.4444,1.4523,1.4536,1.4572,1.464,1.4649,1.4597,1.4596,1.4703,1.4715,1.4726,1.4821,1.4763,1.4769,1.4773,1.4992,1.4994,1.4997,0,0,0,0,0,0,1.4361,1.4379,1.4532,1.4464,1.4484,1.4529,1.4569,1.4575,1.4602,1.4652,1.466,1.4616,1.4702,1.4717,1.4792,1.4825,1.4772,1.4778,1.4989,1.4993,1.4996,1.5011,0,0,0,0,0,0,1.4355,1.4377,1.4407,1.4465,1.4488,1.4595,1.4571,1.4579,1.4613,1.4612,1.4672,1.468,1.4702,1.4782,1.4798,1.4833,1.4783,1.4987,1.4991,1.4995,1.5008,1.5015,1.5021,0,0,0,0,0,1.4348,1.4407,1.4408,1.4427,1.4526,1.4597,1.461,1.4633,1.4616,1.4646,1.4678,1.4679,1.4819,1.479,1.4808,1.4845,1.4985,1.499,1.4994,1.5005,1.5014,1.502,0,0,0,0,0,0,1.4353,1.4416,1.4417,1.4498,1.4542,1.4598,1.4637,1.4641,1.4692,1.4689,1.4716,1.4729,1.4803,1.4831,1.4798,1.4923,1.49,1.4908,1.4902,1.491,1.4916,1.4908,1.4788,0,0,0,0,0,1.4363,1.4416,1.4468,1.4534,1.4556,1.4592,1.4625,1.4638,1.4685,1.4704,1.4742,1.4788,1.4842,1.4878,1.493,1.5012,1.5025,1.5046,1.5052,1.5057,1.5065,1.5109,1.5119,1.5013,1.5013,1.5013,0,0,1.4386,1.4426,1.4458,1.4536,1.4572,1.4625,1.4608,1.4666,1.4707,1.4714,1.4786,1.4815,1.4868,1.4946,1.4982,1.4972,1.5097,1.5063,1.5067,1.5072,1.5115,1.5125,1.5134,1.5016,1.5016,1.5015,0,0,1.4454,1.449,1.4549,1.4585,1.4639,1.4663,1.4677,1.4732,1.4751,1.4824,1.483,1.4878,1.4972,1.5009,1.504,1.5121,1.5124,1.5138,1.517,1.5214,1.5222,1.5229,1.5258,1.5268,1.5145,1.5145,1.5145,0,1.4476,1.4557,1.4579,1.4636,1.467,1.4677,1.4737,1.4771,1.484,1.4863,1.485,1.4967,1.5003,1.509,1.5109,1.5134,1.5151,1.5131,1.5219,1.5227,1.5234,1.5262,1.5273,1.5146,1.5146,1.5146,1.5146,0,1.458,1.4636,1.4677,1.4742,1.478,1.4839,1.487,1.4906,1.4916,1.4941,1.5015,1.5058,1.512,1.5141,1.5152,1.5229,1.5221,1.5213,1.519,1.5245,1.5272,1.5282,1.5148,1.5148,1.5147,1.5147,0,0,1.4656,1.4732,1.4746,1.4776,1.4836,1.4879,1.4938,1.4997,1.5027,1.5074,1.5124,1.5202,1.5195,1.523,1.5245,1.5282,1.5343,1.527,1.5272,1.5282,1.5431,1.5437,1.5449,1.5345,1.5347,1.5349,1.5427,0,1.4731,1.4835,1.4856,1.4946,1.4997,1.5004,1.5055,1.5097,1.5122,1.517,1.5197,1.5252,1.5238,1.5259,1.5297,1.5328,1.5374,1.5322,1.5392,1.5394,1.5378,1.5463,1.5469,1.5541,1.5437,1.5439,1.544,0,1.4833,1.4881,1.4976,1.5028,1.5051,1.5096,1.5151,1.5197,1.5244,1.526,1.5298,1.5308,1.5369,1.5343,1.5427,1.5391,1.542,1.544,1.5443,1.5451,1.5421,1.5473,1.5564,1.5575,1.5457,1.5455,1.5454,0,1.4879,1.4968,1.5036,1.5061,1.5123,1.5155,1.5182,1.5228,1.5262,1.531,1.5332,1.5388,1.5418,1.546,1.5485,1.5463,1.5567,1.5543,1.5582,1.5581,1.5604,1.5602,1.5701,1.5622,1.5622,1.5621,1.5621,0,1.4961,1.5019,1.5057,1.5099,1.5164,1.5187,1.5251,1.5278,1.5318,1.5365,1.5375,1.5419,1.5449,1.5497,1.5517,1.5583,1.5597,1.5611,1.5616,1.561,1.5609,1.5631,1.5626,1.5624,1.5624,1.5623,1.5623,0,1.5024,1.5052,1.5127,1.5179,1.5193,1.5239,1.5284,1.5325,1.5348,1.5408,1.5424,1.5462,1.5519,1.5547,1.5619,1.5632,1.5707,1.5709,1.5691,1.5693,1.573,1.5727,1.5848,1.5865,1.5773,1.5774,1.5775,0,1.5075,1.512,1.5176,1.5208,1.5236,1.5287,1.5322,1.5346,1.5381,1.5438,1.5472,1.5529,1.5577,1.5668,1.5702,1.5757,1.576,1.5798,1.5768,1.5761,1.5761,1.5758,1.5762,1.5804,1.5805,1.5806,1.5806,0,1.5162,1.5173,1.5222,1.5276,1.5316,1.536,1.5403,1.5429,1.546,1.5499,1.5557,1.5594,1.5666,1.5723,1.578,1.5808,1.5813,1.5815,1.5827,1.5823,1.5811,1.5818,1.5706,1.5813,1.5812,1.5812,1.5811,1.5811,1.5221,1.526,1.5306,1.536,1.5394,1.5434,1.5475,1.5503,1.5552,1.5613,1.5624,1.5685,1.5731,1.5808,1.5838,1.5886,1.5878,1.5895,1.59,1.5904,1.5906,1.5802,1.5897,1.5897,1.5896,1.5896,1.5896,0,1.5309,1.5338,1.5387,1.5446,1.5489,1.5488,1.5535,1.557,1.5624,1.5666,1.5712,1.5779,1.5834,1.5872,1.5928,1.5959,1.5963,1.5973,1.5971,1.5978,1.591,1.5894,1.5969,1.5969,1.5969,1.5969,1.5969,1.5969,1.5359,1.5426,1.5442,1.5526,1.5555,1.5615,1.5642,1.5678,1.5712,1.5785,1.5831,1.5855,1.5895,1.5954,1.6004,1.6014,1.6034,1.6045,1.6054,1.599,1.5983,1.5975,1.5961,1.6049,1.6049,1.6118,1.6119,1.6119]}]]